Location: Ozark
(37.5425°N, 88.7628°W)
Time: 15:17:28
(UTC+00:00)

SL-16 R/B - Pass Details

Date: 26 January 2020
Orbit: 841 x 848 km, 71.0° (Epoch: 16 February)

Event Time Altitude Azimuth Distance (km) Brightness Sun altitude
Rises 23:43:23 0° 343° (NNW) 3,413 5.3 -6.6°
Reaches altitude 10° 23:45:56 10° 349° (N) 2,473 4.6 -7.1°
Maximum altitude 23:51:25 49° 64° (ENE) 1,083 2.4 -8.2°
Drops below altitude 10° 23:56:51 10° 138° (SE) 2,455 4.4 -9.2°
Sets 23:59:22 0° 144° (SE) 3,385 5.1 -9.7°
